STARLINK-1707, 46359

Orbit data source: Space-Track

STARLINK-1707, 46359 is a payload satellite owned by SpaceX/Seattle (US) in LEO that was launched on Thu, 03 Sep 2020 UTC via an FALCON 9 launch vehicle from the Air Force Eastern Test Range (AFETR). Payloads include a variety of satellites, spacecraft, and rockets equipped with specific instruments for various scientific and technological missions. These include communications satellites like Starlink; space stations such as the ISS; scientific satellites like the Hubble; Earth observation satellites from companies like Planet Labs, Umbra, and HawkEye 360; GPS; miniature CubeSats for education and research; and military/defense satellites.

Loading next visibility...
STARLINK-1707 details
Identifier
46359, 2020-062AL
Orbit
LEO
Last TLE update14 hours ago
Origin
Flag of USSpaceX/Seattle (US)
ManufacturerSpaceX/Seattle
MissionOperational Commercial Communications
Bus & MotorSTARLINK, Unknown motor
Mass260 kg wet, ~248 kg dry
Launch date (UTC)
2020-09-03 (4 years ago)
Launch vehicle
FALCON 9
Launch site
Air Force Eastern Test Range (AFETR)
Object type
Payload
Rocket body
Debris
Shape & HBRBox + 1 Pan, 8.86 m
Radar Cross Section13.562 m², Large (>1 m²)

Expand to show TLE details & history

TLE from 14 hours ago
0 STARLINK-1707
1 46359U 20062AL  25023.98285517 -.00002668  00000-0 -16031-3 0  9992
2 46359  53.0550  10.8613 0001497  95.8953 264.2207 15.06388632243369
Epoch: 2025-01-23T23:35Z
Definitive object data (Epoch: 2025-01-23T23:35:18.686Z)
Latitude-0°
Longitude-106.51912°
Altitude548.23 km
Speed7.589 km/s
True Right ascension00h 43m 26s
True Declination0° 00' 00"
Sunlit
Object was in daylight at TLE epoch
Visualization TLE readout
Latitude-19.41485°
Longitude86.21269°
Altitude552.905 km
Speed7.585 km/s
Apparent Right ascension11h 20m 58s
Apparent Declination-71° 27' 05"
Sunlit
Object is in daylight
Visualization observer readout
Local Sidereal Time14:29:48
Azimuth195.089° SSW
Elevation-26.268°
Doppler factor1
Orbital elements
Apogee altitude548.554 km
Perigee altitude546.48 km
Semi-major axis6,925.654 km
Eccentricity0.0001497
Inclination53.055°
RAAN10.8613°
Arg. of periapsis95.8953°
True anomaly264.20363°
Mean anomaly264.2207°
Eccentric anomaly264.21217°
Mean motion3.76575 °/min
BSTAR-0.00016031
Orbital period95.6 mins
Loading maneuver chart data...
Loading historical data...
Loading historical data...
Loading historical data...
Loading historical data...
Loading historical data...
Loading historical data...
Loading historical data...

STARLINK-1707 Visibility forecast

Observer location: undefined°, undefined

Span
Click to sort rows by Start time (UTC) header in descending order
Start Az.
Max El. time (UTC)
Max El. Az.
Max El.
End time (UTC)
End Az.
7 mins2025-01-25 01:13:49.667Z211.116° SW2025-01-25 01:16:49.667Z156.883° SSE38.756°2025-01-25 01:20:49.667Z58.935° ENE
5 mins2025-01-25 02:54:49.667Z289.249° WNW2025-01-25 02:56:49.667Z331.923° NNW24.569°2025-01-25 02:59:49.667Z28.038° NE
4 mins2025-01-25 06:16:49.667Z348.823° N2025-01-25 06:18:49.667Z23.89° NE16.198°2025-01-25 06:20:49.667Z54.802° ENE
6 mins2025-01-25 07:55:49.667Z321.403° NNW2025-01-25 07:58:49.667Z47.908° ENE39.579°2025-01-25 08:01:49.667Z112.191° ESE
4 mins2025-01-25 09:36:49.667Z252.654° W2025-01-25 09:37:49.667Z232.701° WSW19.011°2025-01-25 09:40:49.667Z184.603° SSW
|